Regional Weather Roundup
Issued by NWS State College, PA

Home | Current Version | Previous Version | Text Only | Print | Product List | Glossary Off
Versions: 1 2 3 4 5 6 7 8 9 10 11 12 13 14 15 16 17 18 19 20 21 22 23 24 25 26 27 28 29 30 31 32 33 34 35 36 37 38 39 40 41 42 43 44 45 46 47 48 49 50

000
ASUS41 KCTP 180810
RWRCTP

REGIONAL WEATHER ROUNDUP
NATIONAL WEATHER SERVICE STATE COLLEGE PA
400 AM EDT WED OCT 18 2017

Note: "fair" indicates few or no clouds below 12,000 feet with no
significant weather and/or obstructions to visibility.

* = STATION THAT DOES NOT REPORT PRECIPITATION /E.G. RAIN...SNOW...ETC/
    THUNDER OR FOG.

PAZ002>004-007>009-013>016-020>023-029>032-180900-
WESTERN PENNSYLVANIA

CITY           SKY/WX    TMP DP  RH WIND       PRES   REMARKS
ERIE           CLEAR     53  39  59 S10       30.25S
MEADVILLE      CLEAR     47  39  74 S6        30.28S
FRANKLIN*      CLEAR     45  38  76 SW7       30.29S
NEW CASTLE     FAIR      40  39  97 CALM      30.30F
BEAVER COUNTY  NOT AVBL
BUTLER*        CLEAR    N/A N/A N/A CALM      30.30F
PITTSBURGH INT CLEAR     47  39  74 CALM      30.30S
PITTSBURGH     CLEAR     44  38  79 SE5       30.30S
INDIANA*       CLEAR     39  39 100 CALM      30.33F
LATROBE        CLEAR     39  39 100 CALM      30.32S FOG
WASHINGTON CO* CLEAR     39  37  92 S3        30.33S
$$

PAZ004>006-010>012-017>019-024>028-033>037-041-042-045-046-049>053-180900-
CENTRAL PENNSYLVANIA

CITY           SKY/WX    TMP DP  RH WIND       PRES   REMARKS
BRADFORD       CLEAR     45  38  76 SW3       30.27S
DUBOIS         CLEAR     44  36  73 SW6       30.28S
CLEARFIELD     CLEAR     38  38 100 CALM      30.30F
JOHNSTOWN      CLEAR     44  35  70 SW6       30.30S
ALTOONA        CLEAR     44  37  76 CALM      30.31S
STATE COLLEGE  CLEAR     45  38  76 SW5       30.29F
WILLIAMSPORT   CLEAR     40  38  93 NW3       30.29S
SELINSGROVE    CLEAR     39  39 100 CALM      30.30F
FT INDIANTOWN  CLEAR     38  37  99 CALM      30.30F
CAPITAL CITY   CLEAR     41  37  86 CALM      30.31S
HARRISBURG     CLEAR     45  42  89 CALM      30.30F
YORK           CLEAR     37  37 100 CALM      30.31S
$$

PAZ038>040-043-044-047-048-054-055-060>062-067>071-180900-
EASTERN PENNSYLVANIA

CITY           SKY/WX    TMP DP  RH WIND       PRES   REMARKS
SCRANTON       CLEAR     41  37  86 S5        30.27S
MOUNT POCONO   CLEAR     45  35  68 W12       30.25F
ALLENTOWN      CLEAR     39  36  89 NW3       30.29F
QUAKERTOWN*    SUNNY     37  36  93 CALM      30.30S
READING        CLEAR     42  40  92 CALM      30.29F
LANCASTER      CLEAR     40  39  97 CALM      30.31F
COATESVILLE    SUNNY     43  37  81 CALM      30.32S
POTTSTOWN      CLEAR     38  37  97 CALM      30.31F
BLUE BELL      CLEAR     36  36 100 CALM      30.32S
DOYLESTOWN     CLEAR     44  38  79 S3        30.28F
WILLOW GROVE   NOT AVBL
NORTH PHILA    CLEAR     45  39  79 CALM      30.32F
PHILADELPHIA   CLEAR     49  39  68 W3        30.32S
$$




USA.gov is the U.S. government's official web portal to all federal, state and local government web resources and services.